KF0AIT Weather Reports


Display with metric or nautical units.
time (UTC)temp
F
wind
direction
speed
MPH
gust
MPH
rain 1hr
in
rain 24hr
in
rain mn
in
humidity
%
barometer
mb
20260905011824 83 0 0.0 0.0 0.00 0.00 0.00 52 1008.1
20260905010903 83 0 0.0 0.0 0.00 0.00 0.00 52 1008.1
20260905010004 83 67 0.0 1.0 0.00 0.00 0.00 52 1008.1
20260905005424 83 67 0.0 1.0 0.00 0.00 0.00 52 1008.1
20260905004503 83 0 0.0 0.0 0.00 0.00 0.00 52 1008.1
20260905003603 83 0 0.0 0.0 0.00 0.00 0.00 52 1008.1
20260905002703 83 67 0.0 1.0 0.00 0.00 0.00 52 1008.1
20260905001803 83 67 1.0 1.0 0.00 0.00 0.00 52 1008.1
20260905000903 83 67 1.0 1.0 0.00 0.00 0.00 52 1008.1
20260905000003 83 0 0.0 0.0 0.00 0.00 0.00 52 1008.1
20260904235403 83 0 0.0 0.0 0.00 0.00 0.00 52 1008.1
20260904234503 83 0 0.0 0.0 0.00 0.00 0.00 52 1008.1
20260904233624 83 0 0.0 0.0 0.00 0.00 0.00 52 1008.1
20260904232703 83 67 0.0 1.0 0.00 0.00 0.00 52 1008.1
20260904231803 83 0 0.0 0.0 0.00 0.00 0.00 52 1008.1
20260904230903 83 0 0.0 0.0 0.00 0.00 0.00 52 1008.1
20260904230003 83 73 0.0 2.0 0.00 0.00 0.00 52 1008.1
20260904225403 83 73 2.0 2.0 0.00 0.00 0.00 52 1008.1
20260904224503 83 67 0.0 2.0 0.00 0.00 0.00 52 1008.1
20260904223603 83 45 0.0 1.0 0.00 0.00 0.00 52 1008.1
20260904222703 83 90 0.0 2.0 0.00 0.00 0.00 52 1008.1
20260904221803 83 45 0.0 1.0 0.00 0.00 0.00 52 1008.1
20260904220903 83 0 0.0 0.0 0.00 0.00 0.00 52 1008.1
20260904220003 83 337 0.0 2.0 0.00 0.00 0.00 52 1008.1
20260904215403 83 337 0.0 1.0 0.00 0.00 0.00 52 1008.1
20260904214503 83 337 0.0 1.0 0.00 0.00 0.00 52 1008.1
20260904213603 83 0 0.0 0.0 0.00 0.00 0.00 52 1008.1
20260904212703 83 0 0.0 0.0 0.00 0.00 0.00 52 1008.1
20260904211803 83 0 0.0 0.0 0.00 0.00 0.00 52 1008.1
20260904210924 83 0 0.0 0.0 0.00 0.00 0.00 52 1008.1
20260904210003 83 337 0.0 1.0 0.00 0.00 0.00 52 1008.1
20260904205403 83 337 0.0 1.0 0.00 0.00 0.00 52 1008.1
20260904204503 83 0 0.0 0.0 0.00 0.00 0.00 52 1008.1
20260904203603 83 0 0.0 0.0 0.00 0.00 0.00 52 1008.1
20260904202703 83 337 0.0 2.0 0.00 0.00 0.00 52 1008.1
20260904201803 83 4 2.0 2.0 0.00 0.00 0.00 52 1008.1
20260904200903 83 67 0.0 1.0 0.00 0.00 0.00 52 1008.1
20260904200003 83 67 0.0 3.0 0.00 0.00 0.00 52 1008.1
20260904195403 83 0 0.0 0.0 0.00 0.00 0.00 52 1008.1
20260904194503 83 67 0.0 1.0 0.00 0.00 0.00 52 1008.1
20260904193603 83 0 0.0 0.0 0.00 0.00 0.00 52 1008.1
20260904192724 83 67 0.0 4.0 0.00 0.00 0.00 52 1009.2
20260904191824 83 0 0.0 0.0 0.00 0.00 0.00 52 1009.2
20260904190903 83 22 0.0 1.0 0.00 0.00 0.00 52 1009.2
20260904190024 83 45 0.0 4.0 0.00 0.00 0.00 52 1009.2
20260904185403 83 53 0.0 4.0 0.00 0.00 0.00 52 1009.2
20260904184503 83 67 0.0 1.0 0.00 0.00 0.00 52 1009.2
20260904183603 83 58 1.0 1.0 0.00 0.00 0.00 52 1009.2
20260904182703 83 0 0.0 0.0 0.00 0.00 0.00 52 1008.1
20260904181803 83 0 0.0 0.0 0.00 0.00 0.00 52 1008.1
20260904180924 83 0 0.0 0.0 0.00 0.00 0.00 52 1008.1
20260904180024 83 0 0.0 0.0 0.00 0.00 0.00 52 1008.1
20260904175403 83 0 0.0 0.0 0.00 0.00 0.00 52 1008.1
20260904174503 83 22 0.0 1.0 0.00 0.00 0.00 52 1008.1
20260904173603 83 22 0.0 1.0 0.00 0.00 0.00 52 1008.1
20260904172724 83 22 1.0 1.0 0.00 0.00 0.00 55 1008.1
20260904171803 83 0 0.0 0.0 0.00 0.00 0.00 55 1008.1
20260904170903 82 0 0.0 0.0 0.00 0.00 0.00 58 1008.1
20260904170003 81 0 0.0 0.0 0.00 0.00 0.00 58 1008.1
20260904165403 81 360 0.0 1.0 0.00 0.00 0.00 58 1008.1
20260904164503 80 360 0.0 3.0 0.00 0.00 0.00 62 1008.1
20260904163603 80 0 0.0 0.0 0.00 0.00 0.00 64 1008.1
20260904162724 79 0 0.0 0.0 0.00 0.00 0.00 65 1008.1
20260904161803 79 0 0.0 0.0 0.00 0.00 0.00 68 1008.1
20260904160903 78 0 0.0 0.0 0.00 0.00 0.00 70 1008.1
20260904160003 78 67 0.0 1.0 0.00 0.00 0.00 70 1008.1
20260904155403 77 67 0.0 1.0 0.00 0.00 0.00 72 1008.1
20260904154504 77 0 0.0 0.0 0.00 0.00 0.00 76 1008.1
20260904153603 76 45 0.0 1.0 0.00 0.00 0.00 80 1008.1
20260904152703 76 0 0.0 0.0 0.00 0.00 0.00 82 1008.1
20260904151803 75 0 0.0 0.0 0.00 0.00 0.00 83 1008.1
20260904150903 74 0 0.0 0.0 0.00 0.00 0.00 83 1008.1
20260904150003 74 45 0.0 1.0 0.00 0.00 0.00 84 1008.1
20260904145424 74 0 0.0 0.0 0.00 0.00 0.00 84 1008.1
20260904144503 74 0 0.0 0.0 0.00 0.00 0.00 84 1008.1
20260904143603 73 67 0.0 1.0 0.00 0.00 0.00 85 1008.1
20260904142703 73 67 0.0 1.0 0.00 0.00 0.00 85 1007.1
20260904141803 72 0 0.0 0.0 0.00 0.00 0.00 84 1007.1
20260904140903 72 0 0.0 0.0 0.00 0.00 0.00 85 1008.1
20260904140024 71 0 0.0 0.0 0.00 0.00 0.00 85 1007.1
20260904135403 71 0 0.0 0.0 0.00 0.00 0.00 85 1007.1
20260904134503 71 0 0.0 0.0 0.00 0.00 0.00 86 1008.1
20260904133603 71 0 0.0 0.0 0.00 0.00 0.00 86 1008.1
20260904132703 71 0 0.0 0.0 0.00 0.00 0.00 86 1008.1
20260904131803 70 0 0.0 0.0 0.00 0.00 0.00 86 1008.1
20260904130903 70 0 0.0 0.0 0.00 0.00 0.00 86 1008.1
20260904130003 70 0 0.0 0.0 0.00 0.00 0.00 86 1008.1
20260904125403 70 0 0.0 0.0 0.00 0.00 0.00 86 1008.1
20260904124504 70 0 0.0 0.0 0.00 0.00 0.00 88 1007.1
20260904123625 70 0 0.0 0.0 0.00 0.00 0.00 88 1007.1
20260904122703 70 0 0.0 0.0 0.00 0.00 0.00 88 1007.1
20260904121803 70 0 0.0 0.0 0.00 0.00 0.00 88 1007.1
20260904120924 70 0 0.0 0.0 0.00 0.00 0.00 88 1007.1
20260904120025 70 0 0.0 0.0 0.00 0.00 0.00 88 1007.1
20260904115403 70 0 0.0 0.0 0.00 0.00 0.00 88 1007.1
20260904114503 70 0 0.0 0.0 0.00 0.00 0.00 88 1007.1
20260904113603 70 0 0.0 0.0 0.00 0.00 0.00 88 1007.1
20260904112703 70 0 0.0 0.0 0.00 0.00 0.00 89 1006.0
20260904111803 70 0 0.0 0.0 0.00 0.00 0.00 88 1006.0
20260904110924 70 0 0.0 0.0 0.00 0.00 0.00 87 1006.0
20260904110003 70 0 0.0 0.0 0.00 0.00 0.00 86 1006.0
20260904105403 70 0 0.0 0.0 0.00 0.00 0.00 86 1006.0
20260904104503 70 0 0.0 0.0 0.00 0.00 0.00 85 1006.0
20260904103603 70 0 0.0 0.0 0.00 0.00 0.00 85 1006.0
20260904102724 70 0 0.0 0.0 0.00 0.00 0.00 85 1006.0
20260904101803 70 0 0.0 0.0 0.00 0.00 0.00 85 1006.0
20260904100903 70 0 0.0 0.0 0.00 0.00 0.00 84 1006.0
20260904100003 71 0 0.0 0.0 0.00 0.00 0.00 83 1005.0
20260904095403 71 0 0.0 0.0 0.00 0.00 0.00 83 1005.0
20260904094503 71 0 0.0 0.0 0.00 0.00 0.00 83 1005.0
20260904093603 71 0 0.0 0.0 0.00 0.00 0.00 82 1005.0
20260904092703 71 157 0.0 1.0 0.00 0.00 0.00 82 1005.0
20260904091803 71 0 0.0 0.0 0.00 0.00 0.00 82 1005.0
20260904090903 71 0 0.0 0.0 0.00 0.00 0.00 82 1005.0
20260904090003 71 0 0.0 0.0 0.00 0.00 0.00 81 1005.0
20260904085403 72 0 0.0 0.0 0.00 0.00 0.00 81 1005.0
20260904084503 72 0 0.0 0.0 0.00 0.00 0.00 81 1005.0
20260904083603 72 0 0.0 0.0 0.00 0.00 0.00 81 1005.0
20260904082703 72 0 0.0 0.0 0.00 0.00 0.00 81 1005.0
20260904081803 72 0 0.0 0.0 0.00 0.00 0.00 80 1005.0
20260904080903 72 0 0.0 0.0 0.00 0.00 0.00 80 1005.0
20260904080003 72 0 0.0 0.0 0.00 0.00 0.00 80 1005.0
20260904075424 72 0 0.0 0.0 0.00 0.00 0.00 79 1005.0
20260904074503 72 0 0.0 0.0 0.00 0.00 0.00 79 1005.0
20260904073603 73 0 0.0 0.0 0.00 0.00 0.00 79 1005.0
20260904072703 73 0 0.0 0.0 0.00 0.00 0.00 79 1005.0
20260904071803 73 0 0.0 0.0 0.00 0.00 0.00 78 1005.0
20260904070903 73 0 0.0 0.0 0.00 0.00 0.00 78 1005.0
20260904070003 73 0 0.0 0.0 0.00 0.00 0.00 78 1005.0
20260904065424 73 0 0.0 0.0 0.00 0.00 0.00 78 1005.0
20260904064503 74 0 0.0 0.0 0.00 0.00 0.00 77 1005.0
20260904063624 74 0 0.0 0.0 0.00 0.00 0.00 76 1005.0
20260904062703 74 0 0.0 0.0 0.00 0.00 0.00 76 1005.0
20260904061803 74 0 0.0 0.0 0.00 0.00 0.00 75 1005.0
20260904060924 74 0 0.0 0.0 0.00 0.00 0.00 75 1005.0
20260904060003 74 0 0.0 0.0 0.00 0.00 0.00 75 1005.0
20260904055403 74 0 0.0 0.0 0.00 0.00 0.00 74 1005.0
20260904054503 74 0 0.0 0.0 0.00 0.00 0.00 74 1005.0
20260904053603 75 0 0.0 0.0 0.00 0.00 0.00 73 1005.0
20260904052703 75 0 0.0 0.0 0.00 0.00 0.00 73 1005.0
20260904051803 75 0 0.0 0.0 0.00 0.00 0.00 72 1005.0
20260904050924 75 0 0.0 0.0 0.00 0.00 0.00 72 1003.9
20260904050003 76 0 0.0 0.0 0.00 0.00 0.00 71 1003.9
20260904045424 76 0 0.0 0.0 0.00 0.00 0.00 71 1003.9
20260904044503 76 0 0.0 0.0 0.00 0.00 0.00 71 1003.9
20260904043603 76 0 0.0 0.0 0.00 0.00 0.00 70 1003.9
20260904042703 77 0 0.0 0.0 0.00 0.00 0.00 70 1003.9
20260904041803 77 0 0.0 0.0 0.00 0.00 0.00 69 1003.9
20260904040903 77 0 0.0 0.0 0.00 0.00 0.00 69 1003.9
20260904040003 77 0 0.0 0.0 0.00 0.00 0.00 68 1003.9
20260904035403 77 0 0.0 0.0 0.00 0.00 0.00 68 1003.9
20260904034503 78 0 0.0 0.0 0.00 0.00 0.00 68 1003.9
20260904033603 78 0 0.0 0.0 0.00 0.00 0.00 67 1003.9
20260904032703 78 0 0.0 0.0 0.00 0.00 0.00 67 1003.9
20260904031824 78 0 0.0 0.0 0.00 0.00 0.00 67 1003.9
20260904030903 79 0 0.0 0.0 0.00 0.00 0.00 66 1003.9
20260904030003 79 0 0.0 0.0 0.00 0.00 0.00 65 1003.9
20260904025403 79 0 0.0 0.0 0.00 0.00 0.00 65 1003.9
20260904024503 79 0 0.0 0.0 0.00 0.00 0.00 65 1003.9
20260904023603 80 0 0.0 0.0 0.00 0.00 0.00 64 1003.9
20260904022724 80 0 0.0 0.0 0.00 0.00 0.00 64 1003.9
20260904021803 80 0 0.0 0.0 0.00 0.00 0.00 63 1003.9
20260904020904 81 157 0.0 1.0 0.00 0.00 0.00 62 1003.9
20260904020003 81 157 0.0 1.0 0.00 0.00 0.00 62 1002.9
20260904015403 81 0 0.0 0.0 0.00 0.00 0.00 62 1002.9
20260904014503 82 157 0.0 1.0 0.00 0.00 0.00 61 1002.9
20260904013603 82 0 0.0 0.0 0.00 0.00 0.00 62 1002.9
20260904012703 82 0 0.0 0.0 0.00 0.00 0.00 61 1002.9